星链-36392(STARLINK-36392)

导读

STARLINK-36392(NORAD编号68115)是SpaceX星链(Starlink)星座中的一颗低轨通信卫星,属于Starlink大规模卫星互联网组网计划的组成部分。星链项目2015年启动,目标部署4.2万颗卫星,该卫星运行在近地轨道,是Starlink星座累计超万颗发射卫星中的一员,承担全球互联网覆盖任务,可满足偏远地区、航空、海洋等场景联网需求。2026年SpaceX计划将包括该卫星所在批次的4400颗星链卫星轨道高度从550公里降至480公里,提升太空安全,减少碰撞风险与太空碎片隐患。

基本信息
目录编号:
68115
目录名称:
STARLINK-36392
国际标识:
2026-044Q
轨道中心:
EARTH
卫星名称:
星链-36392
卫星全名:
星链-36392(STARLINK-36392)
卫星状态:
在轨 (已飞行181 天)
发射日期:
2026-03-08 UTC
国别 :
美国 (US)
星等 :
--
轨道信息
数据来源 国际轨道数据
星历时间: 2026-09-04T16:25:34+0800
1天前
查看轨道信息
半长轴: 6843.635km
偏心率: 0.0001498
轨道倾角: 97.286°
近地点辐角 105.793°
升交点赤经 206.539°
平近点角 254.348°
近地点: 464.472km
远地点: 466.524km
周期: 93.905分钟
每日圈数: 15.334605
详细信息
固有亮度:
5
最大亮度:
2.5
卫星平台:
Starlink V1.0
覆盖范围:
全球
运营商:
太空探索技术公司
运营商所在国:
美国
制造商(研发单位):
太空探索技术公司
制造商所在国:
美国
使用方式:
暂无
卫星简介
Starlink 计划是 SpaceX 推出的全球卫星互联网项目,通过发射低轨道卫星,为全球尤其是偏远地区提供高速、低延迟的互联网服务。自 2019 年起,Starlink 已部署数千颗卫星,旨在缩小全球数字鸿沟,推动互联网普及。该项目还为军事、航空等行业提供通信支持,带来广泛经济效益。
2D轨道图
3D轨道图
轨道高度分析图
轨道倾角分析图
轨道综合分析图
查看轨道综合分析图
交会数据列表
事件ID 空间交会对象 最接近时刻(TCA) 交会距离 交会风险概率(CRP) 交会风险指数(CRI) 操作
CDM_260906-184304-750506-811521
HAWK-2A (47505)
2026-09-06T
18:43:58+0000
2.137 km
极远距离
1.927019E-6 低风险 0.41
CDM_260903-115604-865706-811521
2026-09-03T
11:56:41+0000
2.895 km
极远距离
1.387804E-6 低风险 0.38